When you browse on this site, cookies collect data to enhance your experience and personalize the content and advertising you see.
Visit our Privacy Policy to learn more. By continuing to use the site, you agree to this use of cookies and data.

Hourly Weather Cape Coast

Today, 5 August, Wednesday

Time Temperature Precipitation Wind Pressure Humidity
00:00 +21°C° 0 mm 4 mps 761 mmHg 90%
01:00 +21°C° 0 mm 4 mps 761 mmHg 91%
02:00 +21°C° 0 mm 3 mps 761 mmHg 93%
03:00 +20°C° 0 mm 3 mps 760 mmHg 94%
04:00 +20°C° 0 mm 3 mps 761 mmHg 95%
05:00 +20°C° 0 mm 3 mps 761 mmHg 95%
06:00 +20°C° 0 mm 3 mps 761 mmHg 96%
07:00 +22°C° 0 mm 3 mps 761 mmHg 86%
08:00 +25°C° 0 mm 3 mps 762 mmHg 76%
09:00 +27°C° 0 mm 3 mps 762 mmHg 66%
10:00 +29°C° 0 mm 3 mps 762 mmHg 59%
11:00 +30°C° 0 mm 4 mps 762 mmHg 53%
12:00 +33°C° 0 mm 5 mps 762 mmHg 47%
13:00 +32°C° 0 mm 5 mps 761 mmHg 52%
14:00 +30°C° 0 mm 6 mps 760 mmHg 56%
15:00 +29°C° 0 mm 7 mps 759 mmHg 61%
16:00 +28°C° 0 mm 7 mps 759 mmHg 66%
17:00 +27°C° 0 mm 7 mps 759 mmHg 70%
18:00 +26°C° 0 mm 7 mps 759 mmHg 75%
19:00 +24°C° 0 mm 7 mps 760 mmHg 78%
20:00 +24°C° 0 mm 6 mps 760 mmHg 81%
21:00 +23°C° 0 mm 6 mps 761 mmHg 84%
22:00 +23°C° 0 mm 5 mps 761 mmHg 85%
23:00 +23°C° 0 mm 5 mps 762 mmHg 87%

Tomorrow, 6 August, Thursday

Time Temperature Precipitation Wind Pressure Humidity
00:00 +22°C° 0 mm 5 mps 762 mmHg 88%
01:00 +22°C° 0 mm 5 mps 761 mmHg 89%
02:00 +22°C° 0 mm 5 mps 761 mmHg 89%
03:00 +22°C° 0 mm 5 mps 760 mmHg 90%
04:00 +21°C° 0 mm 5 mps 761 mmHg 90%
05:00 +21°C° 0 mm 4 mps 761 mmHg 90%
06:00 +21°C° 0 mm 4 mps 761 mmHg 91%
07:00 +23°C° 0 mm 4 mps 762 mmHg 83%
08:00 +25°C° 0 mm 4 mps 762 mmHg 75%
09:00 +27°C° 0 mm 5 mps 762 mmHg 66%
10:00 +28°C° 0 mm 5 mps 762 mmHg 64%
11:00 +29°C° 0 mm 6 mps 762 mmHg 61%
12:00 +30°C° 0 mm 6 mps 762 mmHg 58%
13:00 +30°C° 0 mm 7 mps 761 mmHg 59%
14:00 +29°C° 0 mm 7 mps 761 mmHg 59%
15:00 +29°C° 0 mm 8 mps 760 mmHg 60%
16:00 +28°C° 0 mm 7 mps 760 mmHg 63%
17:00 +27°C° 0 mm 6 mps 760 mmHg 67%
18:00 +26°C° 0 mm 6 mps 761 mmHg 70%
19:00 +26°C° 0 mm 5 mps 761 mmHg 70%
20:00 +26°C° 0 mm 5 mps 762 mmHg 70%
21:00 +25°C° 0 mm 4 mps 762 mmHg 71%
22:00 +25°C° 0 mm 4 mps 762 mmHg 75%
23:00 +23°C° 0 mm 4 mps 762 mmHg 79%

Day after tomorrow, 7 August, Friday

Time Temperature Precipitation Wind Pressure Humidity
00:00 +22°C° 0 mm 4 mps 762 mmHg 84%
01:00 +22°C° 0 mm 4 mps 762 mmHg 85%
02:00 +22°C° 0 mm 4 mps 761 mmHg 87%
03:00 +21°C° 0 mm 4 mps 761 mmHg 88%
04:00 +21°C° 0 mm 4 mps 761 mmHg 89%
05:00 +21°C° 0 mm 3 mps 761 mmHg 90%
06:00 +21°C° 0 mm 3 mps 761 mmHg 90%
07:00 +24°C° 0 mm 3 mps 761 mmHg 82%
08:00 +25°C° 0 mm 4 mps 762 mmHg 74%
09:00 +27°C° 0 mm 4 mps 762 mmHg 66%
10:00 +28°C° 0 mm 4 mps 762 mmHg 62%
11:00 +29°C° 0 mm 4 mps 762 mmHg 59%
12:00 +30°C° 0 mm 5 mps 762 mmHg 56%
13:00 +30°C° 0 mm 5 mps 761 mmHg 57%
14:00 +30°C° 0 mm 6 mps 761 mmHg 58%
15:00 +29°C° 0 mm 6 mps 760 mmHg 59%
16:00 +28°C° 0 mm 6 mps 760 mmHg 64%
17:00 +27°C° 0 mm 6 mps 760 mmHg 69%
18:00 +26°C° 0 mm 5 mps 760 mmHg 73%
19:00 +26°C° 0 mm 5 mps 761 mmHg 76%
20:00 +25°C° 0 mm 5 mps 762 mmHg 79%
21:00 +25°C° 0 mm 4 mps 762 mmHg 82%
22:00 +23°C° 0 mm 4 mps 762 mmHg 84%
23:00 +23°C° 0 mm 4 mps 762 mmHg 86%

8 August, Saturday

Time Temperature Precipitation Wind Pressure Humidity
00:00 +23°C° 0 mm 4 mps 762 mmHg 88%
01:00 +23°C° 0 mm 4 mps 761 mmHg 89%
02:00 +23°C° 0 mm 4 mps 761 mmHg 89%
03:00 +22°C° 0 mm 4 mps 760 mmHg 90%
04:00 +22°C° 0 mm 3 mps 761 mmHg 91%
05:00 +22°C° 0 mm 3 mps 761 mmHg 92%
06:00 +22°C° 0 mm 3 mps 761 mmHg 93%
07:00 +24°C° 0 mm 3 mps 762 mmHg 84%
08:00 +26°C° 0 mm 3 mps 762 mmHg 75%
09:00 +28°C° 0 mm 3 mps 763 mmHg 66%
10:00 +29°C° 0.1 mm 4 mps 763 mmHg 63%
11:00 +30°C° 0.1 mm 4 mps 762 mmHg 59%
12:00 +30°C° 0.1 mm 5 mps 762 mmHg 56%
13:00 +30°C° 0 mm 5 mps 761 mmHg 60%
14:00 +29°C° 0 mm 5 mps 761 mmHg 64%
15:00 +28°C° 0 mm 5 mps 760 mmHg 67%
16:00 +28°C° 0 mm 5 mps 760 mmHg 71%
17:00 +27°C° 0 mm 5 mps 761 mmHg 74%
18:00 +26°C° 0 mm 4 mps 761 mmHg 77%
19:00 +26°C° 0 mm 4 mps 761 mmHg 80%
20:00 +25°C° 0 mm 4 mps 762 mmHg 84%
21:00 +25°C° 0 mm 3 mps 762 mmHg 88%
22:00 +24°C° 0 mm 3 mps 762 mmHg 90%
23:00 +24°C° 0 mm 3 mps 762 mmHg 92%

9 August, Sunday

Time Temperature Precipitation Wind Pressure Humidity
00:00 +24°C° 0 mm 3 mps 762 mmHg 94%
01:00 +24°C° 0 mm 3 mps 761 mmHg 94%
02:00 +23°C° 0 mm 4 mps 761 mmHg 93%
03:00 +23°C° 0 mm 4 mps 760 mmHg 92%
04:00 +23°C° 0 mm 4 mps 760 mmHg 93%
05:00 +22°C° 0 mm 3 mps 761 mmHg 94%
06:00 +22°C° 0 mm 3 mps 761 mmHg 95%
07:00 +25°C° 0 mm 3 mps 761 mmHg 86%
08:00 +26°C° 0 mm 3 mps 762 mmHg 78%
09:00 +28°C° 0 mm 4 mps 762 mmHg 69%
10:00 +28°C° 0 mm 4 mps 762 mmHg 69%
11:00 +28°C° 0 mm 4 mps 762 mmHg 68%
12:00 +28°C° 0 mm 4 mps 761 mmHg 67%
13:00 +29°C° 0 mm 5 mps 761 mmHg 65%
14:00 +29°C° 0 mm 5 mps 760 mmHg 63%
15:00 +29°C° 0 mm 5 mps 759 mmHg 62%
16:00 +28°C° 0 mm 5 mps 759 mmHg 67%
17:00 +27°C° 0 mm 5 mps 759 mmHg 72%
18:00 +26°C° 0 mm 4 mps 759 mmHg 77%
19:00 +25°C° 0 mm 4 mps 760 mmHg 80%
20:00 +25°C° 0 mm 4 mps 760 mmHg 83%
21:00 +23°C° 0 mm 4 mps 761 mmHg 87%
22:00 +23°C° 0 mm 4 mps 761 mmHg 86%
23:00 +23°C° 0 mm 4 mps 761 mmHg 85%

10 August, Monday

Time Temperature Precipitation Wind Pressure Humidity
00:00 +25°C° 0 mm 4 mps 761 mmHg 84%
01:00 +25°C° 0.1 mm 4 mps 761 mmHg 83%
02:00 +25°C° 0.1 mm 4 mps 760 mmHg 83%
03:00 +23°C° 0.1 mm 4 mps 760 mmHg 83%
04:00 +23°C° 0.1 mm 4 mps 760 mmHg 84%
05:00 +23°C° 0.1 mm 4 mps 760 mmHg 84%
06:00 +24°C° 0.1 mm 3 mps 760 mmHg 85%
07:00 +25°C° 0.1 mm 4 mps 761 mmHg 79%
08:00 +26°C° 0.1 mm 4 mps 761 mmHg 73%
09:00 +27°C° 0.1 mm 4 mps 762 mmHg 67%
10:00 +28°C° 0 mm 4 mps 761 mmHg 62%
11:00 +29°C° 0 mm 5 mps 761 mmHg 58%
12:00 +30°C° 0 mm 5 mps 760 mmHg 54%
13:00 +30°C° 0 mm 5 mps 760 mmHg 55%
14:00 +29°C° 0 mm 6 mps 759 mmHg 56%
15:00 +29°C° 0 mm 6 mps 759 mmHg 57%
16:00 +28°C° 0 mm 5 mps 759 mmHg 62%
17:00 +27°C° 0 mm 5 mps 759 mmHg 67%
18:00 +25°C° 0 mm 5 mps 759 mmHg 71%
19:00 +25°C° 0 mm 5 mps 759 mmHg 75%
20:00 +23°C° 0 mm 4 mps 760 mmHg 78%
21:00 +23°C° 0 mm 4 mps 760 mmHg 81%
22:00 +22°C° 0 mm 4 mps 760 mmHg 83%
23:00 +22°C° 0 mm 3 mps 760 mmHg 85%
Show more